ATLAS CENTAUR 2 DEB, 3741

Orbit data source: Space-Track

ATLAS CENTAUR 2 DEB, 3741 is space debris in LEO originally from a launch on Wed, 27 Nov 1963 UTC launched from the Air Force Eastern Test Range (AFETR). Debris objects in space refer to the collection of defunct objects orbiting the Earth. Examples of debris include non-operational satellites, rocket bodies, and fragments generated from explosions, collisions, or faulty payload assembly.

Loading next visibility...
ATLAS CENTAUR 2 DEB details
Identifier
3741, 1963-047L
Orbit
LEO
Last TLE update7 hours ago
Origin
Flag of USNASA LeRC (US)
ManufacturerUnknown
MissionSpacecraft
Bus & MotorUnknown
MassUnknown
Launch date (UTC)
1963-11-27 (61 years ago)
Launch vehicleUnknown
Launch site
Air Force Eastern Test Range (AFETR)
Object type
Payload
Rocket body
Debris
Shape & HBRUnknown
Radar Cross SectionSmall (<0.1 m²)

Expand to show TLE details & history

TLE from 7 hours ago
0 ATLAS CENTAUR 2 DEB
1 03741U 63047L   25015.60928333  .00018763  00000-0  40988-2 0  9998
2 03741  29.8778 174.4611 0264662 176.1887 184.0794 14.37240296838017
Epoch: 2025-01-15T14:37Z
Definitive object data (Epoch: 2025-01-15T14:37:22.079Z)
Latitude-0.00005°
Longitude-160.18015°
Altitude954.698 km
Speed7.279 km/s
True Right ascension11h 37m 50s
True Declination0° 00' 00"
Sunlit
Object was in full shadow at TLE epoch
Visualization TLE readout
Latitude7.51217°
Longitude4.82078°
Altitude581.851 km
Speed7.669 km/s
Apparent Right ascension22h 19m 43s
Apparent Declination-57° 35' 00"
Sunlit
Object is in daylight
Visualization observer readout
Local Sidereal Time22:45:16
Azimuth183.45° SSW
Elevation-7.647°
Doppler factor1
Orbital elements
Apogee altitude960.734 km
Perigee altitude582.286 km
Semi-major axis7,149.647 km
Eccentricity0.0264662
Inclination29.8778°
RAAN174.4611°
Arg. of periapsis176.1887°
True anomaly183.87055°
Mean anomaly184.0794°
Eccentric anomaly183.9743°
Mean motion3.59018 °/min
BSTAR0.0040988
Orbital period100.27 mins
Loading maneuver chart data...

ATLAS CENTAUR 2 DEB Visibility forecast

Observer location: undefined°, undefined

Span
Click to sort rows by Start time (UTC) header in descending order
Start Az.
Max El. time (UTC)
Max El. Az.
Max El.
End time (UTC)
End Az.
7 mins2025-01-16 14:12:20.065Z204.764° SW2025-01-16 14:16:20.065Z158.807° S19.457°2025-01-16 14:19:20.065Z123.833° SE
7 mins2025-01-16 15:58:20.065Z226.175° WSW2025-01-16 16:01:20.065Z186.779° SSW25.287°2025-01-16 16:05:20.065Z127.187° SE
7 mins2025-01-16 17:44:20.065Z235.973° WSW2025-01-16 17:47:20.065Z196.435° SSW21.221°2025-01-16 17:51:20.065Z142.335° SSE
|